SCP
0 0 0 0 0 0 0 0 0 0 0 0 0 0 0 0 0 0 0 0 0 0 0 0 0 0 0 0 0 0 0 0 0 0 0 0 0 0 0 0 0 0 0 0 0
0 0 0 0 0 0 0 0 0 0 0 0 0 0 0 0 0 0 0 0 0 0 0 0 0 0 0 0 0 0 0 0 0 0 0 0 0 0 0 0 0 0 0 0 0
0 0 0 0 0 0 0 0 0 0 0 0 0 0 0 0 0 0 0 0 0 0 0 0 0 0 0 0 0 0 0 0 0 0 0 0 0 0 0 0 0 0 0 0 0
0 0 0 0 0 0 0 0 0 0 0 0 0 0 0 0 0 0 0 0 0 0 0 0 0 0 0 0 0 0 0 0 0 0 0 0 0 0 0 0 0 0 0 0 0
0 0 0 0 0 0 0 0 0 0 0 0 0 0 1 1 0 0 0 0 0 0 0 0 0 0 0 0 0 0 0 0 0 0 0 0 0 0 0 0 0 0 0 0 0
0 0 0 0 0 0 0 0 0 0 0 0 0 0 0 0 0 0 0 0 0 0 0 0 0 0 0 0 0 0 0 0 0 0 0 0 0 0 0 0 0 0 0 0 0
0 0 0 0 0 0 0 0 0 0 0 0 0 0 0 0 0 0 0 0 0 0 0 0 0 0 0 0 0 0 0 0 0 0 0 0 0 0 0 0 0 0 0 0 0
0 0 0 0 0 0 0 0 0 0 0 0 0 0 0 0 0 0 0 0 0 0 0 0 0 0 0 0 0 0 0 0 0 0 0 0 0 0 0 0 0 0 0 0 0
0 0 0 0 0 0 0 0 0 0 0 0 0 0 0 0 0 0 0 0 0 0 0 0 0 0 0 0 0 0 0 0 0 0 0 0 0 0 0 0 0 0 0 0 0
0 0 0 0 0 0 0 0 0 0 0 0 0 0 0 0 0 0 0 0 0 0 0 0 0 0 0 0 0 0 0 0 0 0 0 0 0 0 0 0 0 0 0 0 0
0 0 0 0 0 1 1 0 0 0 0 0 0 0 0 0 0 0 0 0 0 0 0 -0 0 0 0 0 0 0 0 0 0 0 0 0 0 0 0 0 0 0 0 0 0
0 0 0 0 0 1 0 0 0 0 0 0 0 0 0 0 0 0 0 0 0 0 0 0 0 0 0 0 0 0 0 0 0 0 0 0 0 0 0 0 0 0 0 0 0
0 0 0 0 0 0 0 0 0 0 0 0 0 0 0 0 0 0 0 0 0 0 0 0 0 0 0 0 0 0 0 0 0 0 0 0 -0 -0 0 0 0 0 0 0 0
0 0 0 0 0 0 0 0 0 0 0 0 0 0 0 0 0 0 0 0 0 0 0 0 0 0 0 0 0 0 0 0 0 0 0 -0 -0 -0 -0 0 0 0 0 0 0
0 0 0 1 0 0 0 0 0 0 0 0 0 0 0 0 0 0 0 0 0 0 0 0 -0 0 0 0 0 0 0 0 0 0 0 0 -0 -0 -0 0 0 0 0 0 0
0 0 0 0 0 0 0 0 0 0 0 0 0 0 0 0 0 0 0 0 0 0 0 0 0 0 0 0 0 0 0 0 0 0 0 0 0 -0 -0 -0 0 0 0 0 0
0 0 0 0 0 0 0 0 0 0 0 0 0 0 0 0 0 0 0 0 0 0 0 0 0 0 0 0 0 0 0 0 0 0 0 -0 0 0 0 0 0 0 0 0 0
-0 0 0 0 0 0 0 0 0 0 0 0 0 0 0 0 0 0 0 0 0 0 0 0 0 0 0 0 0 0 0 0 0 0 0 0 0 -0 -0 -0 0 0 0 0 0
0 0 0 0 0 0 0 0 0 0 0 0 0 0 0 0 0 0 0 0 0 0 0 0 0 0 0 0 0 0 0 0 0 0 0 0 0 0 0 0 0 0 0 0 0
0 0 0 0 0 0 0 0 0 0 0 0 0 0 0 0 0 0 0 0 0 0 0 0 0 0 0 0 0 0 0 0 0 0 0 0 0 -0 0 -0 -0 0 0 0 0
0 0 0 0 0 0 0 0 0 0 0 0 0 0 0 0 0 0 0 0 0 0 0 0 0 0 0 0 0 0 0 0 0 0 0 0 0 -0 -0 -0 0 0 0 0 0
0 0 0 0 0 0 0 0 0 0 0 0 0 0 0 0 0 0 0 0 0 0 0 0 0 0 0 0 0 0 0 0 0 0 0 0 0 0 0 0 0 0 0 0 -0
0 0 0 0 0 0 0 0 0 0 0 0 0 0 0 0 0 0 0 0 0 0 0 0 -0 0 0 0 0 0 0 0 0 0 0 0 0 0 0 0 0 0 0 0 0
0 0 0 0 0 0 0 0 0 0 0 0 0 0 0 0 0 0 0 0 0 0 0 0 0 0 0 0 0 0 0 0 0 0 0 0 0 0 0 0 0 0 0 -0 0
0 0 0 0 0 0 0 0 0 0 0 0 0 0 0 0 0 0 0 0 0 0 0 0 0 0 -0 -0 -0 -0 0 0 0 0 0 0 0 0 0 0 0 -0 -0 0 0
0 0 0 0 0 0 0 0 0 0 0 0 0 0 0 0 0 0 0 0 0 0 0 0 -0 0 0 0 -0 -0 0 0 0 0 0 0 0 0 0 0 0 0 -0 -0 -0
0 0 0 0 0 0 0 0 0 0 0 0 0 0 0 0 0 0 0 0 0 0 0 0 0 0 0 0 0 0 0 0 0 0 0 0 0 -0 0 0 0 0 0 0 0
Wind_Speed_500mb
65 58 60 54 56 60 52 58 62 60 60 62 62 60 55 53 56 55 57 47 48 21 31 28 23 20 16 18 16 20 7 13 10 11 7 6 2 2 6 8 18 19 11 7 32
70 66 60 57 57 53 59 53 60 59 57 58 61 60 56 53 55 60 60 60 35 31 25 29 28 24 13 17 16 12 7 32 22 20 5 14 3 6 7 8 15 19 24 17 36
73 71 67 61 56 56 62 56 59 53 55 56 55 55 55 50 53 46 49 65 43 37 25 24 21 23 13 13 12 13 11 12 23 30 24 23 8 7 8 8 20 25 27 25 42
80 74 72 66 62 62 55 64 55 57 52 52 56 49 47 44 19 22 43 60 57 39 27 25 23 14 11 10 13 7 17 13 12 31 21 13 9 5 21 13 6 9 26 33 43
84 79 75 72 69 64 65 64 58 57 53 50 51 50 52 50 38 10 30 39 57 62 40 24 16 14 10 15 11 5 6 19 22 22 22 13 20 12 23 20 21 25 20 36 42
83 84 79 76 75 68 66 63 61 57 62 55 48 49 60 53 38 49 4 48 49 67 63 58 23 19 11 12 15 15 22 8 10 20 16 12 12 15 18 21 18 20 22 33 43
84 87 85 81 76 72 67 64 62 55 57 63 55 47 49 46 33 41 52 24 47 55 56 49 50 17 10 6 11 7 4 6 18 12 10 16 12 21 54 43 30 25 23 30 41
82 98 95 85 81 75 69 65 60 53 50 53 50 48 27 51 38 39 59 40 38 38 39 46 47 49 19 1 4 7 2 6 5 22 12 18 28 23 40 53 64 62 50 37 41
88 90 92 89 84 79 71 65 57 51 44 45 45 27 21 46 59 37 46 64 54 50 43 41 37 22 22 8 3 5 8 9 9 29 7 13 13 31 39 43 59 60 59 56 46
90 88 86 96 91 82 71 63 51 46 46 43 33 15 33 57 60 65 41 45 46 47 37 32 14 15 9 17 19 12 11 6 8 5 4 6 31 23 20 26 58 54 53 53 60
106 90 78 103 97 85 75 67 56 32 60 25 35 9 7 40 45 52 58 49 35 37 22 38 18 25 36 30 8 11 10 13 6 9 8 12 32 34 38 37 49 42 58 73 73
96 93 88 92 90 90 89 94 97 37 36 26 4 37 5 39 25 48 67 45 36 35 34 13 38 45 10 18 17 6 7 7 7 5 11 13 29 30 30 31 55 62 72 67 58
98 97 86 107 100 99 109 94 78 55 18 30 16 45 19 34 15 43 60 59 17 31 34 39 10 32 30 19 28 26 20 6 7 5 6 9 21 30 16 47 59 69 79 80 82
97 92 91 109 115 115 108 86 67 55 9 10 17 18 21 15 8 25 58 30 10 33 14 25 26 23 17 16 26 36 23 17 13 7 10 5 15 22 10 20 28 57 70 92 91
86 93 98 120 108 116 117 91 69 38 13 14 20 14 26 18 14 22 45 44 29 14 15 23 25 34 21 32 21 9 12 18 12 8 5 13 13 17 6 13 31 37 66 82 97
83 107 79 128 111 106 118 100 60 11 12 14 26 26 18 28 7 20 25 39 6 2 15 17 2 10 34 19 35 18 8 4 6 9 18 34 22 20 21 29 35 25 53 69 74
88 103 95 128 100 120 120 86 10 11 5 22 17 33 35 14 16 12 18 32 19 21 25 37 20 5 9 18 13 29 22 10 11 10 20 12 19 48 15 14 21 22 54 63 62
81 89 107 124 110 135 121 24 11 6 14 7 22 35 40 14 14 13 28 28 24 16 8 24 17 31 24 33 19 44 32 11 17 15 16 7 19 16 27 55 67 54 67 60 49
77 75 86 104 142 139 96 27 17 16 17 20 35 31 20 25 14 15 16 18 23 30 23 24 28 5 21 15 33 18 23 18 8 4 3 10 20 14 17 20 33 50 52 64 72
81 70 62 143 139 126 35 17 9 10 21 30 12 15 13 33 17 30 25 20 14 41 30 7 11 16 15 14 15 26 20 14 7 16 14 12 16 23 5 30 34 26 46 72 68
57 30 92 130 131 84 32 7 11 13 27 14 11 12 11 18 20 18 16 8 21 18 30 2 12 3 23 26 38 16 21 15 9 7 11 18 19 17 32 24 32 31 47 50 60
45 8 126 145 30 13 19 18 17 10 10 10 11 12 15 15 16 22 21 11 27 29 33 27 7 10 22 5 32 37 20 23 13 14 9 3 26 5 17 17 13 28 45 44 43
35 49 113 131 17 10 8 9 10 9 6 7 8 6 5 14 10 11 15 17 27 25 15 17 11 16 8 10 3 27 38 34 29 2 29 24 33 12 14 12 20 27 32 37 35
32 15 27 33 18 27 25 8 13 12 9 11 10 10 9 7 4 13 11 7 16 22 38 28 9 16 22 10 6 26 40 51 47 31 44 32 63 47 10 15 13 20 22 30 29
28 11 19 12 14 12 12 9 23 11 7 8 8 6 14 8 6 7 1 6 3 2 10 12 8 9 31 35 25 19 32 41 51 54 35 57 58 70 39 28 34 43 33 36 37
22 20 30 8 53 30 9 3 11 5 10 3 14 12 9 13 10 9 11 7 7 9 7 9 18 23 43 38 31 45 47 36 50 51 51 61 59 62 43 47 54 71 71 63 60
66 68 37 15 24 17 7 10 11 16 6 19 18 11 5 8 7 5 9 12 11 4 2 7 1 8 43 12 24 35 56 60 59 51 52 58 80 90 22 25 42 54 71 86 87
Wind_Direction_500mb
237 241 241 237 237 225 224 224 224 225 227 226 228 227 225 227 220 214 216 218 219 220 212 211 209 195 196 186 171 152 156 215 224 175 250 358 277 235 230 183 185 201 208 196 179
240 235 236 237 233 231 223 223 224 226 224 223 225 225 228 223 218 223 216 210 213 214 215 208 211 196 190 174 165 155 205 208 194 185 223 306 233 220 196 203 223 226 226 211 188
238 234 232 232 237 228 222 222 221 226 222 220 219 218 218 220 230 244 214 220 207 202 206 211 205 191 186 178 184 186 194 200 186 184 206 263 266 227 195 234 225 232 237 214 194
238 234 230 228 230 229 225 221 221 219 218 219 219 210 203 210 234 249 233 229 225 213 205 206 201 187 162 182 193 216 218 192 191 174 173 210 243 237 216 237 221 263 245 225 204
237 234 230 226 227 226 225 220 220 215 217 212 215 205 201 207 216 268 201 199 221 209 205 205 203 199 190 184 168 211 238 219 214 189 193 228 237 225 253 243 258 259 257 230 220
238 233 230 226 225 222 222 219 217 214 213 216 211 205 202 217 223 220 130 202 213 218 222 222 228 252 242 208 178 212 223 236 222 231 210 195 248 207 239 245 238 251 249 235 227
236 234 229 222 222 219 219 216 214 213 210 213 213 209 207 222 224 214 217 211 206 211 202 201 200 185 250 192 225 164 184 272 246 226 236 208 256 216 241 243 254 262 257 241 233
234 235 225 218 217 216 215 211 208 206 205 207 206 212 223 221 214 208 214 217 220 220 223 214 218 220 211 181 66 154 97 220 238 168 232 171 252 245 246 239 249 250 251 249 242
232 231 218 215 212 212 209 204 200 199 198 198 195 188 225 224 220 208 209 216 212 215 214 218 225 183 176 160 95 268 215 211 293 195 135 187 262 266 251 231 237 242 241 243 250
236 232 238 208 206 205 203 194 185 182 186 180 188 165 230 218 219 208 204 208 194 197 201 211 227 212 153 184 203 214 217 231 223 195 187 181 259 261 257 239 244 245 246 240 242
235 234 234 209 202 196 191 172 162 177 189 187 187 170 80 210 221 211 207 201 196 185 191 202 211 229 203 190 148 156 182 192 219 229 187 218 250 259 256 248 253 252 246 243 241
227 232 223 197 195 190 188 178 180 200 172 176 178 200 237 172 168 201 201 200 202 209 190 216 208 218 181 185 207 146 184 224 257 174 191 261 264 259 249 239 245 245 249 251 250
218 223 219 206 193 187 189 182 173 157 140 203 203 190 160 181 193 198 194 202 196 214 202 204 187 196 193 195 206 216 218 188 222 328 230 324 276 264 244 235 247 249 253 255 252
213 217 219 200 184 181 179 174 168 158 99 189 195 211 186 145 235 213 202 198 234 216 204 240 247 209 180 195 198 219 193 213 232 279 264 139 290 266 264 248 240 243 237 247 248
209 206 209 197 178 177 173 165 159 154 162 166 169 191 193 187 149 182 203 197 207 181 167 217 177 208 217 212 185 205 152 190 195 202 327 220 260 274 242 250 252 242 243 247 247
209 205 204 182 181 172 171 158 149 116 209 165 148 173 149 190 213 146 171 196 189 41 254 248 334 201 215 202 191 154 110 137 170 207 245 237 226 240 238 238 256 246 250 256 252
204 208 216 180 166 169 165 151 123 166 239 166 171 177 172 160 175 147 179 188 184 181 217 231 217 262 159 188 163 177 168 211 219 191 241 199 206 243 239 245 237 243 252 259 254
201 202 202 180 164 161 154 151 149 179 191 188 149 160 193 142 219 158 164 198 213 191 195 220 231 202 204 209 197 191 185 202 205 188 246 113 229 243 221 230 249 257 261 266 267
196 195 178 167 162 156 149 176 179 175 167 137 137 166 179 187 158 170 192 207 207 199 186 188 231 177 176 190 186 191 199 205 81 60 44 209 269 273 248 244 253 256 258 260 259
174 170 182 156 157 154 155 154 111 152 129 136 140 179 164 178 162 187 179 206 211 199 210 227 239 208 174 160 252 195 154 191 179 186 228 246 255 240 224 233 245 254 248 255 256
165 164 165 155 152 156 169 153 116 137 118 133 139 121 157 167 173 187 209 287 209 175 191 177 228 277 146 194 194 186 200 198 161 189 187 250 256 205 205 210 233 240 259 267 269
149 169 160 151 144 157 158 145 115 136 95 100 98 114 158 147 162 191 207 220 203 157 202 183 233 214 212 189 214 206 206 208 206 217 238 160 258 214 219 226 232 274 282 287 284
148 117 150 149 148 130 122 97 101 116 106 121 118 125 135 149 139 192 176 239 252 178 174 167 215 258 323 244 336 217 214 207 219 51 215 223 255 214 220 242 250 257 288 295 282
142 123 125 133 142 143 131 111 111 77 96 88 110 96 117 126 61 171 176 249 241 175 216 167 195 213 236 257 124 214 211 214 209 220 238 227 256 250 185 225 233 253 294 308 307
127 107 125 123 140 114 97 107 126 113 72 100 41 154 138 128 112 104 122 333 304 29 194 186 257 221 248 256 262 247 234 222 224 224 224 241 242 257 245 249 260 274 284 289 300
110 141 84 75 135 119 115 219 117 119 118 80 115 179 157 143 157 140 135 205 243 4 200 192 241 253 263 257 246 247 250 260 231 233 237 248 254 253 253 244 244 259 277 283 281
126 120 119 111 144 122 164 162 114 121 14 157 153 130 167 189 159 209 226 237 238 108 10 317 46 204 265 252 256 252 237 235 231 243 227 230 238 256 254 222 229 237 248 253 259
Wind_Speed_850mb
65 58 60 54 56 60 52 58 62 60 60 62 62 60 55 53 56 55 57 47 48 21 31 28 23 20 16 18 16 20 7 13 10 11 7 6 2 2 6 8 18 19 11 7 32
70 66 60 57 57 53 59 53 60 59 57 58 61 60 56 53 55 60 60 60 35 31 25 29 28 24 13 17 16 12 7 32 22 20 5 14 3 6 7 8 15 19 24 17 36
73 71 67 61 56 56 62 56 59 53 55 56 55 55 55 50 53 46 49 65 43 37 25 24 21 23 13 13 12 13 11 12 23 30 24 23 8 7 8 8 20 25 27 25 42
80 74 72 66 62 62 55 64 55 57 52 52 56 49 47 44 19 22 43 60 57 39 27 25 23 14 11 10 13 7 17 13 12 31 21 13 9 5 21 13 6 9 26 33 43
84 79 75 72 69 64 65 64 58 57 53 50 51 50 52 50 38 10 30 39 57 62 40 24 16 14 10 15 11 5 6 19 22 22 22 13 20 12 23 20 21 25 20 36 42
83 84 79 76 75 68 66 63 61 57 62 55 48 49 60 53 38 49 4 48 49 67 63 58 23 19 11 12 15 15 22 8 10 20 16 12 12 15 18 21 18 20 22 33 43
84 87 85 81 76 72 67 64 62 55 57 63 55 47 49 46 33 41 52 24 47 55 56 49 50 17 10 6 11 7 4 6 18 12 10 16 12 21 54 43 30 25 23 30 41
82 98 95 85 81 75 69 65 60 53 50 53 50 48 27 51 38 39 59 40 38 38 39 46 47 49 19 1 4 7 2 6 5 22 12 18 28 23 40 53 64 62 50 37 41
88 90 92 89 84 79 71 65 57 51 44 45 45 27 21 46 59 37 46 64 54 50 43 41 37 22 22 8 3 5 8 9 9 29 7 13 13 31 39 43 59 60 59 56 46
90 88 86 96 91 82 71 63 51 46 46 43 33 15 33 57 60 65 41 45 46 47 37 32 14 15 9 17 19 12 11 6 8 5 4 6 31 23 20 26 58 54 53 53 60
106 90 78 103 97 85 75 67 56 32 60 25 35 9 7 40 45 52 58 49 35 37 22 38 18 25 36 30 8 11 10 13 6 9 8 12 32 34 38 37 49 42 58 73 73
96 93 88 92 90 90 89 94 97 37 36 26 4 37 5 39 25 48 67 45 36 35 34 13 38 45 10 18 17 6 7 7 7 5 11 13 29 30 30 31 55 62 72 67 58
98 97 86 107 100 99 109 94 78 55 18 30 16 45 19 34 15 43 60 59 17 31 34 39 10 32 30 19 28 26 20 6 7 5 6 9 21 30 16 47 59 69 79 80 82
97 92 91 109 115 115 108 86 67 55 9 10 17 18 21 15 8 25 58 30 10 33 14 25 26 23 17 16 26 36 23 17 13 7 10 5 15 22 10 20 28 57 70 92 91
86 93 98 120 108 116 117 91 69 38 13 14 20 14 26 18 14 22 45 44 29 14 15 23 25 34 21 32 21 9 12 18 12 8 5 13 13 17 6 13 31 37 66 82 97
83 107 79 128 111 106 118 100 60 11 12 14 26 26 18 28 7 20 25 39 6 2 15 17 2 10 34 19 35 18 8 4 6 9 18 34 22 20 21 29 35 25 53 69 74
88 103 95 128 100 120 120 86 10 11 5 22 17 33 35 14 16 12 18 32 19 21 25 37 20 5 9 18 13 29 22 10 11 10 20 12 19 48 15 14 21 22 54 63 62
81 89 107 124 110 135 121 24 11 6 14 7 22 35 40 14 14 13 28 28 24 16 8 24 17 31 24 33 19 44 32 11 17 15 16 7 19 16 27 55 67 54 67 60 49
77 75 86 104 142 139 96 27 17 16 17 20 35 31 20 25 14 15 16 18 23 30 23 24 28 5 21 15 33 18 23 18 8 4 3 10 20 14 17 20 33 50 52 64 72
81 70 62 143 139 126 35 17 9 10 21 30 12 15 13 33 17 30 25 20 14 41 30 7 11 16 15 14 15 26 20 14 7 16 14 12 16 23 5 30 34 26 46 72 68
57 30 92 130 131 84 32 7 11 13 27 14 11 12 11 18 20 18 16 8 21 18 30 2 12 3 23 26 38 16 21 15 9 7 11 18 19 17 32 24 32 31 47 50 60
45 8 126 145 30 13 19 18 17 10 10 10 11 12 15 15 16 22 21 11 27 29 33 27 7 10 22 5 32 37 20 23 13 14 9 3 26 5 17 17 13 28 45 44 43
35 49 113 131 17 10 8 9 10 9 6 7 8 6 5 14 10 11 15 17 27 25 15 17 11 16 8 10 3 27 38 34 29 2 29 24 33 12 14 12 20 27 32 37 35
32 15 27 33 18 27 25 8 13 12 9 11 10 10 9 7 4 13 11 7 16 22 38 28 9 16 22 10 6 26 40 51 47 31 44 32 63 47 10 15 13 20 22 30 29
28 11 19 12 14 12 12 9 23 11 7 8 8 6 14 8 6 7 1 6 3 2 10 12 8 9 31 35 25 19 32 41 51 54 35 57 58 70 39 28 34 43 33 36 37
22 20 30 8 53 30 9 3 11 5 10 3 14 12 9 13 10 9 11 7 7 9 7 9 18 23 43 38 31 45 47 36 50 51 51 61 59 62 43 47 54 71 71 63 60
66 68 37 15 24 17 7 10 11 16 6 19 18 11 5 8 7 5 9 12 11 4 2 7 1 8 43 12 24 35 56 60 59 51 52 58 80 90 22 25 42 54 71 86 87
Wind_Direction_850mb
237 241 241 237 237 225 224 224 224 225 227 226 228 227 225 227 220 214 216 218 219 220 212 211 209 195 196 186 171 152 156 215 224 175 250 358 277 235 230 183 185 201 208 196 179
240 235 236 237 233 231 223 223 224 226 224 223 225 225 228 223 218 223 216 210 213 214 215 208 211 196 190 174 165 155 205 208 194 185 223 306 233 220 196 203 223 226 226 211 188
238 234 232 232 237 228 222 222 221 226 222 220 219 218 218 220 230 244 214 220 207 202 206 211 205 191 186 178 184 186 194 200 186 184 206 263 266 227 195 234 225 232 237 214 194
238 234 230 228 230 229 225 221 221 219 218 219 219 210 203 210 234 249 233 229 225 213 205 206 201 187 162 182 193 216 218 192 191 174 173 210 243 237 216 237 221 263 245 225 204
237 234 230 226 227 226 225 220 220 215 217 212 215 205 201 207 216 268 201 199 221 209 205 205 203 199 190 184 168 211 238 219 214 189 193 228 237 225 253 243 258 259 257 230 220
238 233 230 226 225 222 222 219 217 214 213 216 211 205 202 217 223 220 130 202 213 218 222 222 228 252 242 208 178 212 223 236 222 231 210 195 248 207 239 245 238 251 249 235 227
236 234 229 222 222 219 219 216 214 213 210 213 213 209 207 222 224 214 217 211 206 211 202 201 200 185 250 192 225 164 184 272 246 226 236 208 256 216 241 243 254 262 257 241 233
234 235 225 218 217 216 215 211 208 206 205 207 206 212 223 221 214 208 214 217 220 220 223 214 218 220 211 181 66 154 97 220 238 168 232 171 252 245 246 239 249 250 251 249 242
232 231 218 215 212 212 209 204 200 199 198 198 195 188 225 224 220 208 209 216 212 215 214 218 225 183 176 160 95 268 215 211 293 195 135 187 262 266 251 231 237 242 241 243 250
236 232 238 208 206 205 203 194 185 182 186 180 188 165 230 218 219 208 204 208 194 197 201 211 227 212 153 184 203 214 217 231 223 195 187 181 259 261 257 239 244 245 246 240 242
235 234 234 209 202 196 191 172 162 177 189 187 187 170 80 210 221 211 207 201 196 185 191 202 211 229 203 190 148 156 182 192 219 229 187 218 250 259 256 248 253 252 246 243 241
227 232 223 197 195 190 188 178 180 200 172 176 178 200 237 172 168 201 201 200 202 209 190 216 208 218 181 185 207 146 184 224 257 174 191 261 264 259 249 239 245 245 249 251 250
218 223 219 206 193 187 189 182 173 157 140 203 203 190 160 181 193 198 194 202 196 214 202 204 187 196 193 195 206 216 218 188 222 328 230 324 276 264 244 235 247 249 253 255 252
213 217 219 200 184 181 179 174 168 158 99 189 195 211 186 145 235 213 202 198 234 216 204 240 247 209 180 195 198 219 193 213 232 279 264 139 290 266 264 248 240 243 237 247 248
209 206 209 197 178 177 173 165 159 154 162 166 169 191 193 187 149 182 203 197 207 181 167 217 177 208 217 212 185 205 152 190 195 202 327 220 260 274 242 250 252 242 243 247 247
209 205 204 182 181 172 171 158 149 116 209 165 148 173 149 190 213 146 171 196 189 41 254 248 334 201 215 202 191 154 110 137 170 207 245 237 226 240 238 238 256 246 250 256 252
204 208 216 180 166 169 165 151 123 166 239 166 171 177 172 160 175 147 179 188 184 181 217 231 217 262 159 188 163 177 168 211 219 191 241 199 206 243 239 245 237 243 252 259 254
201 202 202 180 164 161 154 151 149 179 191 188 149 160 193 142 219 158 164 198 213 191 195 220 231 202 204 209 197 191 185 202 205 188 246 113 229 243 221 230 249 257 261 266 267
196 195 178 167 162 156 149 176 179 175 167 137 137 166 179 187 158 170 192 207 207 199 186 188 231 177 176 190 186 191 199 205 81 60 44 209 269 273 248 244 253 256 258 260 259
174 170 182 156 157 154 155 154 111 152 129 136 140 179 164 178 162 187 179 206 211 199 210 227 239 208 174 160 252 195 154 191 179 186 228 246 255 240 224 233 245 254 248 255 256
165 164 165 155 152 156 169 153 116 137 118 133 139 121 157 167 173 187 209 287 209 175 191 177 228 277 146 194 194 186 200 198 161 189 187 250 256 205 205 210 233 240 259 267 269
149 169 160 151 144 157 158 145 115 136 95 100 98 114 158 147 162 191 207 220 203 157 202 183 233 214 212 189 214 206 206 208 206 217 238 160 258 214 219 226 232 274 282 287 284
148 117 150 149 148 130 122 97 101 116 106 121 118 125 135 149 139 192 176 239 252 178 174 167 215 258 323 244 336 217 214 207 219 51 215 223 255 214 220 242 250 257 288 295 282
142 123 125 133 142 143 131 111 111 77 96 88 110 96 117 126 61 171 176 249 241 175 216 167 195 213 236 257 124 214 211 214 209 220 238 227 256 250 185 225 233 253 294 308 307
127 107 125 123 140 114 97 107 126 113 72 100 41 154 138 128 112 104 122 333 304 29 194 186 257 221 248 256 262 247 234 222 224 224 224 241 242 257 245 249 260 274 284 289 300
110 141 84 75 135 119 115 219 117 119 118 80 115 179 157 143 157 140 135 205 243 4 200 192 241 253 263 257 246 247 250 260 231 233 237 248 254 253 253 244 244 259 277 283 281
126 120 119 111 144 122 164 162 114 121 14 157 153 130 167 189 159 209 226 237 238 108 10 317 46 204 265 252 256 252 237 235 231 243 227 230 238 256 254 222 229 237 248 253 259